Location: Bühlhof
(48.7849°N, 8.6361°E)
Time: 10:09:04
(UTC+00:00)

Cosmos 1707 Rocket - Pass Details

Date: 19 January 2026
Orbit: 599 x 623 km, 82.5° (Epoch: 18 February)

Event Time Altitude Azimuth Distance (km) Brightness Sun altitude
Rises 17:26:25 0° 158° (SSE) 2,844 6.9 -13.5°
Reaches altitude 10° 17:28:52 10° 146° (SE) 1,943 5.9 -13.9°
Maximum altitude 17:32:27 26° 89° (E) 1,182 4.4 -14.5°
Enters shadow 17:33:23 24° 67° (ENE) 1,248 4.5 -14.6°
